G7NPW-1 Weather Reports


time (UTC)temp
C
wind
direction
speed
KPH
gust
KPH
rain 1hr
cm
rain 24hr
cm
rain mn
cm
humidity
%
barometer
mb
20260502130504 17 200 11.3 12.9 0.00 0.00 0.00 51 1014.9
20260502123505 17 250 12.9 12.9 0.00 0.00 0.00 51 1015.9
20260502122504 17 250 12.9 12.9 0.00 0.00 0.00 51 1015.9
20260502120504 17 250 12.9 12.9 0.00 0.00 0.00 51 1015.9
20260502114007 16 240 12.9 12.9 0.00 0.00 0.00 58 1015.9
20260502113504 16 240 12.9 12.9 0.00 0.00 0.00 58 1015.9
20260502113008 16 240 12.9 12.9 0.00 0.00 0.00 58 1015.9
20260502112007 16 240 12.9 12.9 0.00 0.00 0.00 58 1015.9
20260502110504 16 240 12.9 12.9 0.00 0.00 0.00 58 1015.9
20260502110004 16 240 12.9 12.9 0.00 0.00 0.00 58 1015.9
20260502105504 15 230 11.3 11.3 0.00 0.00 0.00 67 1016.9
20260502104504 15 230 11.3 11.3 0.00 0.00 0.00 67 1016.9
20260502104007 15 230 11.3 11.3 0.00 0.00 0.00 67 1016.9
20260502103505 15 230 11.3 11.3 0.00 0.00 0.00 67 1016.9
20260502102503 15 230 11.3 11.3 0.00 0.00 0.00 67 1016.9
20260502102007 15 230 11.3 11.3 0.00 0.00 0.00 67 1016.9
20260502101504 15 230 11.3 11.3 0.00 0.00 0.00 67 1016.9
20260502101008 15 230 11.3 11.3 0.00 0.00 0.00 67 1016.9
20260502090504 12 260 11.3 16.1 0.00 0.00 0.00 71 1016.9
20260502071007 11 260 12.9 12.9 0.00 0.00 0.00 87 1016.9
20260502070504 11 260 12.9 20.9 0.00 0.00 0.00 87 1016.9
20260502070004 11 260 12.9 20.9 0.00 0.00 0.00 87 1016.9
20260502065007 12 260 20.9 20.9 0.00 0.00 0.00 87 1017.9
20260502063007 12 260 20.9 20.9 0.00 0.00 0.00 87 1017.9
20260502062503 12 260 20.9 20.9 0.00 0.00 0.00 87 1017.9
20260502062008 12 260 20.9 20.9 0.00 0.00 0.00 87 1017.9
20260502061505 12 260 20.9 20.9 0.00 0.00 0.00 87 1017.9
20260502060006 12 260 20.9 20.9 0.00 0.00 0.00 87 1017.9
20260501204007 13 260 20.9 20.9 0.00 0.00 0.00 82 1017.9
20260501203007 13 260 20.9 20.9 0.00 0.00 0.00 82 1017.9
20260501202504 13 260 20.9 20.9 0.00 0.00 0.00 82 1017.9
20260501202008 13 260 20.9 20.9 0.00 0.00 0.00 82 1017.9
20260501200504 13 260 20.9 20.9 0.00 0.00 0.00 82 1017.9
20260501194504 16 270 20.9 20.9 0.00 0.00 0.00 72 1017.9
20260501193504 16 270 20.9 20.9 0.00 0.00 0.00 72 1017.9
20260501193007 16 270 20.9 20.9 0.00 0.00 0.00 72 1017.9
20260501191007 16 270 20.9 20.9 0.00 0.00 0.00 72 1017.9
20260501185504 17 260 33.8 33.8 0.00 0.00 0.00 63 1017.9
20260501184007 17 260 33.8 33.8 0.00 0.00 0.00 63 1017.9
20260501183505 17 260 33.8 33.8 0.00 0.00 0.00 63 1017.9
20260501183008 17 260 33.8 33.8 0.00 0.00 0.00 63 1017.9
20260501182504 17 260 33.8 33.8 0.00 0.00 0.00 63 1017.9
20260501182008 17 260 33.8 33.8 0.00 0.00 0.00 63 1017.9
20260501180504 17 260 33.8 33.8 0.00 0.00 0.00 63 1017.9
20260501180004 17 260 33.8 33.8 0.00 0.00 0.00 63 1017.9
20260501175007 22 210 14.5 14.5 0.00 0.00 0.00 43 1016.9
20260501174007 22 210 14.5 14.5 0.00 0.00 0.00 43 1016.9
20260501173504 22 210 14.5 14.5 0.00 0.00 0.00 43 1016.9
20260501173007 22 210 14.5 14.5 0.00 0.00 0.00 43 1016.9
20260501170503 22 210 14.5 16.1 0.00 0.00 0.00 43 1016.9
20260501165503 23 170 16.1 16.1 0.00 0.00 0.00 38 1016.9
20260501164007 23 170 16.1 16.1 0.00 0.00 0.00 38 1016.9
20260501162007 23 170 16.1 16.1 0.00 0.00 0.00 38 1016.9
20260501161504 23 170 16.1 16.1 0.00 0.00 0.00 38 1016.9
20260501155008 22 200 19.3 19.3 0.00 0.00 0.00 40 1017.9
20260501154008 22 200 19.3 19.3 0.00 0.00 0.00 40 1017.9
20260501153504 22 200 19.3 19.3 0.00 0.00 0.00 40 1017.9
20260501151007 22 200 19.3 19.3 0.00 0.00 0.00 40 1017.9
20260501145504 23 170 16.1 16.1 0.00 0.00 0.00 38 1017.9